Orbital Elements at Epoch 2459200.5 (2020-Dec-17.0) TDB
Reference: JPL 20 (heliocentric ecliptic J2000)
Element | Value | Uncertainty (1-sigma) | Units |
e | .2266527696430771 | 3.488e-08 | |
a | 2.428489487080706 | 8.1168e-09 | au |
q | 1.878065618784768 | 8.6007e-08 | au |
i | 2.894231547432842 | 4.7963e-06 | deg |
node | 154.7521380383028 | 6.3269e-05 | deg |
peri | 215.716272233938 | 6.4009e-05 | deg |
M | 201.0202000920398 | 9.7093e-06 | deg |
tp | 2459810.938917837301 (2022-Aug-19.43891784) | 3.8513e-05 | TDB |
period | 1382.301465649442 3.78 | 6.9302e-06 1.897e-08 | d yr |
n | .2604352299017946 | 1.3057e-09 | deg/d |
Q | 2.978913355376644 | 9.9565e-09 | au |
|
| | Orbit Determination Parameters
Additional Information
|